Location: Miles
(41.4492°N, 81.6087°W)
Time: 18:40:16
(UTC+00:00)

Tiros 1 despin weight - Pass Details

Date: 21 September 2024
Orbit: 573 x 615 km, 48.2° (Epoch: 04 October)

Event Time Altitude Azimuth Distance (km) Brightness Sun altitude
Rises 07:44:25 0° 266° (W) 2,854 - -36.8°
Reaches altitude 10° 07:46:48 10° 273° (W) 1,959 - -36.5°
Maximum altitude 07:51:06 43° 345° (NNW) 865 - -35.9°
Exits shadow 07:54:00 19° 49° (NE) 1,470 ? -35.5°
Drops below altitude 10° 07:55:27 10° 58° (ENE) 1,979 ? -35.2°
Sets 07:57:52 0° 65° (ENE) 2,888 ? -34.9°
